Weather History for KJNX - March, 2014

Change the Weather History Date:

Monday, March 17, 2014

  Actual Average Record
Temperature  
Mean Temperature 34 °F -  
Max Temperature 35 °F 63 °F 84 °F (2015)
Min Temperature 33 °F 37 °F 22 °F (1970)
Degree Days  
Heating Degree Days 31    
Moisture  
Dew Point 35 °F    
Average Humidity 100    
Maximum Humidity 100    
Minimum Humidity 100    
Precipitation  
Precipitation 0.15 in - - ()
Sea Level Pressure  
Sea Level Pressure 29.89 in    
Wind  
Wind Speed 10 mph (NNE)    
Max Wind Speed 15 mph    
Max Gust Speed 23 mph    
Visibility 7 miles    
Events      
Averages and records for this station are not official NWS values.
T = Trace of Precipitation, MM = Missing Value Source: NWS Daily Summary

Daily Weather History Graph

Daily Weather History Graph

Search for Another Location

Airport or City:

Trip Planner

Search our weather history database for the weather conditions in past years. The results will help you decide how hot, cold, wet, or windy it might be!

Date:

Astronomy

Mar. 17, 2014 Rise Set
Actual Time 7:21 AM EDT 7:22 PM EDT
Civil Twilight 6:56 AM EDT 7:48 PM EDT
Nautical Twilight 6:26 AM EDT 8:17 PM EDT
Astronomical Twilight 5:56 AM EDT 8:47 PM EDT
Moon 8:34 PM EDT (3/17) 7:38 AM EDT (3/17)
Length of Visible Light 12h 52m
Length of Day
12h 01m
Full, 99% of the Moon is Illuminated
Mar 17
Full
Mar 23
Last Quarter
Mar 30
New
Apr 7
First Quarter
Apr 15
Full

Hourly Weather History & Observations

Time (EDT) Temp. Windchill Dew Point Humidity Pressure Visibility Wind Dir Wind Speed Gust Speed Precip Events Conditions
12:15 AM - - - N/A% 29.85 in 5.0 mi NNE 6.9 mph - N/A   Overcast
12:35 AM - - - N/A% 29.84 in 5.0 mi NNE 8.1 mph - N/A   Overcast
12:55 AM - - - N/A% 29.85 in 5.0 mi North 10.4 mph - 0.01 in   Overcast
1:15 AM - - - N/A% 29.84 in 5.0 mi NNE 10.4 mph 16.1 mph N/A   Overcast
1:35 AM - - - N/A% 29.84 in 4.0 mi North 15.0 mph 20.7 mph N/A   Overcast
2:15 AM - - - N/A% 29.84 in 4.0 mi NNE 11.5 mph 19.6 mph N/A   Overcast
2:35 AM - - - N/A% 29.84 in 7.0 mi North 15.0 mph 23.0 mph N/A   Overcast
2:55 AM - - - N/A% 29.85 in 7.0 mi NE 9.2 mph 17.3 mph N/A   Overcast
3:15 AM - - - N/A% 29.83 in 7.0 mi NNE 10.4 mph 19.6 mph N/A   Overcast
3:35 AM - - - N/A% 29.83 in 10.0 mi NNE 13.8 mph 18.4 mph N/A   Overcast
3:55 AM - - - N/A% 29.83 in 7.0 mi NNE 13.8 mph 19.6 mph N/A   Overcast
4:15 AM - - - N/A% 29.84 in 5.0 mi NNE 10.4 mph 17.3 mph N/A   Overcast
4:35 AM - - - N/A% 29.84 in 4.0 mi NNE 12.7 mph - N/A   Overcast
4:55 AM - - - N/A% 29.83 in 5.0 mi NNE 10.4 mph - N/A   Overcast
5:15 AM - - - N/A% 29.83 in 10.0 mi North 10.4 mph 17.3 mph N/A   Overcast
5:35 AM - - - N/A% 29.82 in 10.0 mi NNE 13.8 mph 21.9 mph N/A   Overcast
5:55 AM - - - N/A% 29.83 in 10.0 mi NNE 12.7 mph 18.4 mph N/A   Overcast
6:15 AM - - - N/A% 29.84 in 10.0 mi NE 13.8 mph 21.9 mph N/A   Overcast
6:35 AM - - - N/A% 29.83 in 10.0 mi NNE 13.8 mph 17.3 mph N/A   Overcast
6:55 AM - - - N/A% 29.86 in 10.0 mi NNE 9.2 mph - N/A   Overcast
7:15 AM - - - N/A% 29.87 in 7.0 mi NE 8.1 mph - N/A   Overcast
7:35 AM - - - N/A% 29.86 in 5.0 mi NNE 11.5 mph 20.7 mph N/A   Overcast
7:55 AM - - - N/A% 29.87 in 7.0 mi NE 12.7 mph 17.3 mph N/A   Overcast
8:15 AM - - - N/A% 29.89 in 10.0 mi NNE 9.2 mph 17.3 mph N/A   Overcast
8:35 AM - - - N/A% 29.89 in 10.0 mi NNE 13.8 mph 17.3 mph N/A   Overcast
8:55 AM - - - N/A% 29.88 in 10.0 mi NNE 12.7 mph 18.4 mph N/A   Overcast
9:15 AM - - - N/A% 29.88 in 10.0 mi NNE 10.4 mph - N/A   Overcast
9:35 AM - - - N/A% 29.88 in 10.0 mi NNE 13.8 mph 20.7 mph N/A   Overcast
9:55 AM - - - N/A% 29.87 in 10.0 mi NNE 11.5 mph - N/A   Overcast
10:15 AM - - - N/A% 29.87 in 10.0 mi NNE 11.5 mph - N/A   Overcast
10:35 AM - - - N/A% 29.88 in 10.0 mi NE 15.0 mph - N/A   Overcast
10:55 AM - - - N/A% - - North - - N/A   Unknown
11:15 AM - - - N/A% 29.92 in 10.0 mi NNE 11.5 mph - N/A   Overcast
11:35 AM - - - N/A% 29.93 in - North 9.2 mph - N/A   Unknown
11:55 AM 33.8 °F 24.8 °F 33.8 °F 100% 29.92 in 10.0 mi NE 12.7 mph 17.3 mph N/A   Overcast
12:15 PM 35.6 °F 28.6 °F 35.6 °F 100% 29.91 in 10.0 mi NE 9.2 mph 17.3 mph N/A   Overcast
12:35 PM - - - N/A% 29.91 in 10.0 mi NNE 11.5 mph 20.7 mph N/A   Overcast
12:55 PM 35.6 °F 28.0 °F 35.6 °F 100% 29.95 in 10.0 mi NNE 10.4 mph - N/A   Overcast
1:15 PM 35.6 °F 29.2 °F 35.6 °F 100% 29.94 in 10.0 mi North 8.1 mph - N/A   Overcast
1:35 PM 35.6 °F 29.2 °F 35.6 °F 100% 29.92 in 10.0 mi NNE 8.1 mph - N/A   Overcast
1:55 PM 35.6 °F 28.6 °F 35.6 °F 100% 29.92 in 10.0 mi NNE 9.2 mph - N/A   Overcast
2:15 PM 35.6 °F 29.2 °F 35.6 °F 100% 29.90 in 10.0 mi NE 8.1 mph - N/A   Overcast
2:35 PM 35.6 °F 28.6 °F 35.6 °F 100% 29.90 in 7.0 mi NNE 9.2 mph - N/A   Overcast
2:55 PM - - - N/A% 29.91 in 4.0 mi North 6.9 mph - N/A   Overcast
3:15 PM - - - N/A% 29.90 in 4.0 mi NNE 9.2 mph - N/A   Overcast
3:35 PM - - - N/A% 29.90 in 1.8 mi NNE 8.1 mph 17.3 mph N/A   Overcast
3:55 PM - - - N/A% 29.92 in 2.0 mi North 8.1 mph - 0.01 in   Overcast
4:15 PM - - - N/A% 29.91 in 5.0 mi NNE 10.4 mph - N/A   Overcast
4:35 PM - - - N/A% 29.91 in 5.0 mi NE 6.9 mph - N/A   Overcast
4:55 PM - - - N/A% 29.90 in 5.0 mi NNE 9.2 mph - 0.01 in   Overcast
5:15 PM - - - N/A% 29.91 in 7.0 mi NNE 8.1 mph - N/A   Overcast
5:35 PM - - - N/A% 29.89 in 7.0 mi NNE 8.1 mph - 0.01 in   Overcast
5:55 PM - - - N/A% 29.89 in 4.0 mi NNE 13.8 mph - 0.02 in   Overcast
6:15 PM - - - N/A% 29.90 in 5.0 mi NNE 6.9 mph - 0.01 in   Overcast
6:35 PM - - - N/A% 29.92 in 7.0 mi North 4.6 mph - 0.02 in   Overcast
6:55 PM - - - N/A% 29.92 in 3.0 mi NNE 8.1 mph - 0.04 in   Overcast
7:15 PM - - - N/A% 29.91 in 4.0 mi NNE 13.8 mph - 0.02 in   Overcast
7:35 PM - - - N/A% 29.91 in 10.0 mi NNE 9.2 mph - 0.02 in   Overcast
7:55 PM - - - N/A% 29.92 in 7.0 mi NNE 9.2 mph - 0.03 in   Overcast
8:15 PM - - - N/A% 29.91 in 10.0 mi NE 10.4 mph - N/A   Overcast
8:35 PM - - - N/A% 29.93 in 7.0 mi NNE 10.4 mph 18.4 mph 0.01 in   Overcast
8:55 PM - - - N/A% 29.94 in 5.0 mi NNE 11.5 mph - 0.01 in   Overcast
9:15 PM - - - N/A% 29.94 in 10.0 mi NNE 9.2 mph 16.1 mph N/A   Overcast
9:35 PM - - - N/A% 29.95 in 7.0 mi NE 8.1 mph - N/A   Overcast
9:55 PM - - - N/A% 29.95 in 5.0 mi NNE 11.5 mph - N/A   Overcast
10:15 PM - - - N/A% 29.95 in 5.0 mi NNE 12.7 mph - N/A   Overcast
10:35 PM - - - N/A% 29.95 in 4.0 mi NE 11.5 mph - N/A   Overcast
10:55 PM - - - N/A% 29.97 in 7.0 mi NNE 9.2 mph - N/A   Overcast
11:15 PM - - - N/A% 29.97 in 5.0 mi North 11.5 mph - 0.01 in   Overcast
11:35 PM - - - N/A% 29.98 in 3.0 mi NNE 10.4 mph - 0.01 in   Overcast
11:55 PM - - - N/A% 29.97 in 4.0 mi NNE 8.1 mph - 0.02 in   Overcast